[[{"header":{"parameterUnit":"m.s-1","parameterCategory":2,"la1":30.2991,"la2":30.254,"lo1":-89.0895,"lo2":-89.0444,"dy":0.0017,"dx":0.0017,"nx":28,"ny":28,"refTime":"2024-03-25T21:00:00:Z","depth":"0","parameterNumber":2,"parameterNumberName":"U-component_of_CURRENTS"},"data":[0,0,0,0,0,0,0,0,0,0,0,0,0,0,0,0,0,0,0,0,0,0,0,0,0,0,0,0,0,0,0,0,0,0,0,0,0,0,0,0,0,0,0,0,0,0,0,0,0,0,0,0,0,0,0,0,0,0,0.3759,0.3759,0,0.3708,0.3707,0.3707,0.3669,0.3668,0.3668,0.3668,0.3601,0.3599,0.3597,0,0,0,0,0,0,0,0,0,0,0,0,0,0.3816,0.3815,0.3759,0.3759,0.3759,0.3708,0.3707,0.3706,0.3669,0.3668,0.3668,0.3668,0.3601,0.3599,0.3597,0,0,0,0,0,0,0,0,0,0,0,0,0,0.3778,0.3815,0.376,0.3736,0.3733,0.3709,0.3707,0.3706,0.3669,0.3668,0.3668,0.3668,0.3602,0.36,0.3597,0.3584,0,0,0.3589,0.3588,0,0,0,0,0,0,0,0,0.378,0.3776,0.374,0.3737,0.3735,0.3697,0.3703,0.3665,0.3669,0.369,0.3668,0.3668,0.3633,0.3628,0.3615,0.358,0.3577,0.3589,0.3587,0.3586,0.3586,0,0,0,0,0,0,0,0.3783,0.3778,0.3736,0.3739,0.3736,0.3725,0.3719,0.3695,0.3661,0.3688,0.3686,0.3685,0.3632,0.3618,0.3613,0.3576,0.3589,0.3587,0.3585,0.3584,0.3555,0.3556,0,0,0,0,0,0,0.3795,0.378,0.3738,0.3735,0.3761,0.3724,0.3718,0.3707,0.3661,0.3655,0.3685,0.3683,0.3622,0.3616,0.3611,0.3608,0.3586,0.3584,0.3582,0.3554,0.3555,0.3556,0,0,0,0,0,0,0.3797,0.3792,0.374,0.3759,0.3752,0.3724,0.3712,0.3706,0.3697,0.3659,0.3652,0.3683,0.3622,0.3614,0.3598,0.3605,0.3583,0.358,0.3554,0.3555,0.3556,0.3592,0,0,0,0,0,0,0.3798,0.3792,0.3783,0.376,0.3752,0.3728,0.3712,0.3705,0.3698,0.3695,0.3656,0.3649,0.3621,0.3602,0.3595,0.3601,0.3578,0.3553,0.3554,0.3555,0.359,0.3595,0.3598,0,0,0,0,0,0.38,0.3792,0.3783,0.3778,0.3742,0.3729,0.3723,0.3701,0.3698,0.3693,0.3673,0.365,0.3607,0.36,0.3592,0.3597,0.3552,0.3554,0.3555,0.3588,0.3594,0.3598,0,0,0,0,0,0,0.3804,0.3787,0.3776,0.376,0.3748,0.3724,0.3721,0.3708,0.3687,0.3688,0.3654,0.3645,0.3633,0.3615,0.3609,0.3596,0.3578,0.3579,0.3606,0.3611,0.3615,0.3609,0.3576,0,0,0,0,0,0.3804,0.3793,0.3778,0.3763,0.3766,0.3746,0.3738,0.3725,0.3707,0.3698,0.3665,0.3645,0.3633,0.3623,0.36,0.3591,0.358,0.3593,0.3597,0.36,0.3592,0.3588,0.3591,0.3562,0.3562,0.3562,0,0,0.3797,0.3789,0.378,0.3764,0.3758,0.3755,0.3741,0.3736,0.3726,0.3694,0.3669,0.3653,0.3634,0.3622,0.3616,0.3608,0.3607,0.3603,0.3606,0.3595,0.3591,0.3593,0.3596,0.3563,0.3563,0.3563,0,0,0.3798,0.3783,0.3785,0.3781,0.3778,0.3763,0.3767,0.3745,0.3733,0.3715,0.3694,0.3683,0.3653,0.3639,0.3633,0.3649,0.3628,0.3648,0.3663,0.366,0.3662,0.3663,0.3669,0.367,0.3652,0.3652,0.3652,0,0.3803,0.3786,0.3782,0.3792,0.3789,0.3773,0.3777,0.3762,0.3729,0.372,0.3714,0.3678,0.3662,0.3656,0.3663,0.3656,0.3654,0.3644,0.3664,0.3665,0.3666,0.3671,0.3673,0.3654,0.3654,0.3654,0.3654,0,0.3804,0.3796,0.3803,0.3803,0.3802,0.3799,0.3791,0.3778,0.3764,0.3742,0.3728,0.3706,0.3687,0.3687,0.368,0.3682,0.3679,0.3668,0.365,0.3671,0.3676,0.3677,0.3657,0.3656,0.3656,0.3655,0,0,0.3811,0.3805,0.3811,0.3804,0.3807,0.3802,0.3804,0.379,0.3787,0.3757,0.3748,0.3734,0.3718,0.3711,0.37,0.3697,0.3712,0.3689,0.3688,0.3692,0.3714,0.3763,0.3768,0.3706,0.3706,0.3706,0.372,0,0.3816,0.3823,0.3824,0.3819,0.3815,0.3814,0.3817,0.3805,0.3792,0.3773,0.3758,0.3743,0.373,0.3729,0.3724,0.3708,0.3713,0.371,0.3694,0.3694,0.3732,0.377,0.3727,0.374,0.372,0.372,0.372,0,0.381,0.3815,0.3817,0.3813,0.3819,0.3816,0.3817,0.3816,0.3803,0.3801,0.3786,0.3767,0.3754,0.3745,0.373,0.3729,0.3726,0.3717,0.3717,0.3746,0.3744,0.3712,0.3742,0.346,0.3721,0.3721,0.3721,0,0.3786,0.3801,0.3796,0.3796,0.3801,0.3806,0.3811,0.3814,0.3814,0.381,0.3809,0.379,0.3776,0.3767,0.3748,0.3743,0.3733,0.3724,0.3765,0.3768,0.3719,0.3719,0.3469,0.3721,0.3721,0.3721,0.3721,0,0.3764,0.3756,0.3781,0.377,0.3771,0.3793,0.3795,0.3803,0.3815,0.381,0.3813,0.3806,0.378,0.3766,0.3757,0.3768,0.3743,0.3775,0.3778,0.3735,0.3736,0.348,0.3344,0.3721,0.3721,0.3721,0.3721,0,0.3712,0.3729,0.3714,0.3737,0.3744,0.3743,0.3772,0.3774,0.3805,0.3801,0.3801,0.3805,0.3813,0.3797,0.3783,0.3785,0.3651,0.3798,0.3758,0.3758,0.3565,0.3437,0.3187,0.3117,0.3859,0.3861,0.3862,0,0.3671,0.3661,0.3681,0.3678,0.3682,0.3695,0.3705,0.3749,0.3761,0.3797,0.3791,0.3807,0.3821,0.3837,0.3861,0.3883,0.3654,0.3833,0.3824,0.355,0.3406,0.3246,0.3194,0.377,0.377,0.3771,0.3771,0,0.3596,0.3612,0.3615,0.362,0.3623,0.3629,0.3653,0.3665,0.3722,0.3753,0.3791,0.3812,0.3865,0.3866,0.3901,0.391,0.3601,0.3844,0.3544,0.3311,0.313,0.3067,0.3762,0.3773,0.3773,0.3773,0.3773,0.3772,0.3544,0.3536,0.3556,0.3562,0.356,0.3562,0.3567,0.3602,0.364,0.3669,0.3745,0.3765,0.3763,0.3844,0.3817,0.3653,0.3637,0.3513,0.3382,0.3246,0.3153,0.3876,0.3905,0.3905,0.3906,0.3906,0.3906,0,0.3504,0.3508,0.3498,0.3505,0.3499,0.3517,0.3533,0.3541,0.3573,0.3609,0.366,0.3611,0.3576,0.3523,0.342,0.3192,0.3085,0.2973,0.2666,0.2649,0.327,0.3238,0.3139,0.314,0.314,0.314,0.3141,0.3141,0.3479,0.3477,0.3483,0.3461,0.3461,0.3425,0.3432,0.3417,0.3443,0.3368,0.3322,0.331,0.3125,0.2836,0.2559,0.252,0.2184,0.2105,0.1995,0.2315,0.2352,0.2386,0.2318,0.2029,0.2027,0.1371,0.1364,0.1359]},{"header":{"parameterUnit":"m.s-1","parameterCategory":2,"la1":30.2991,"la2":30.254,"lo1":-89.0895,"lo2":-89.0444,"dy":0.0017,"dx":0.0017,"nx":28,"ny":28,"refTime":"2024-03-25T21:00:00:Z","depth":"0","parameterNumber":3,"parameterNumberName":"V-component_of_CURRENTS"},"data":[0,0,0,0,0,0,0,0,0,0,0,0,0,0,0,0,0,0,0,0,0,0,0,0,0,0,0,0,0,0,0,0,0,0,0,0,0,0,0,0,0,0,0,0,0,0,0,0,0,0,0,0,0,0,0,0,0,0,-0.1565,-0.1565,0,-0.1549,-0.155,-0.155,-0.1498,-0.1496,-0.1494,-0.1493,-0.1573,-0.1577,-0.1581,0,0,0,0,0,0,0,0,0,0,0,0,0,-0.1466,-0.1469,-0.1565,-0.1565,-0.1564,-0.1549,-0.155,-0.1551,-0.1499,-0.1496,-0.1494,-0.1492,-0.1571,-0.1576,-0.1581,0,0,0,0,0,0,0,0,0,0,0,0,0,-0.1494,-0.147,-0.1566,-0.153,-0.1526,-0.1549,-0.155,-0.1551,-0.1499,-0.1496,-0.1493,-0.1491,-0.157,-0.1576,-0.1582,-0.1676,0,0,-0.16,-0.1602,0,0,0,0,0,0,0,0,-0.1492,-0.1498,-0.1536,-0.1532,-0.1528,-0.1515,-0.1543,-0.1594,-0.15,-0.1518,-0.1493,-0.1489,-0.1559,-0.1566,-0.158,-0.168,-0.1683,-0.16,-0.1604,-0.1606,-0.1608,0,0,0,0,0,0,0,-0.149,-0.1498,-0.1568,-0.1535,-0.153,-0.1484,-0.1487,-0.1553,-0.1564,-0.1516,-0.151,-0.1496,-0.1558,-0.1574,-0.1582,-0.1684,-0.16,-0.1605,-0.1609,-0.1611,-0.1863,-0.1866,0,0,0,0,0,0,-0.1484,-0.1498,-0.1568,-0.1566,-0.1493,-0.1488,-0.1491,-0.1529,-0.156,-0.1559,-0.1499,-0.1494,-0.1566,-0.1575,-0.1584,-0.1679,-0.1606,-0.1612,-0.1615,-0.186,-0.1864,-0.1867,0,0,0,0,0,0,-0.1483,-0.1493,-0.1568,-0.1521,-0.1526,-0.1493,-0.1536,-0.153,-0.1534,-0.1544,-0.1546,-0.1504,-0.1564,-0.1576,-0.1652,-0.1682,-0.1614,-0.162,-0.1856,-0.1861,-0.1865,-0.1881,0,0,0,0,0,0,-0.1482,-0.1494,-0.1536,-0.1523,-0.1528,-0.1582,-0.1537,-0.1532,-0.1526,-0.1519,-0.1551,-0.1555,-0.1562,-0.1644,-0.1658,-0.1689,-0.1624,-0.1852,-0.1858,-0.1864,-0.1877,-0.1886,-0.1894,0,0,0,0,0,-0.1479,-0.1553,-0.1539,-0.1547,-0.1583,-0.1582,-0.1583,-0.1552,-0.1529,-0.1544,-0.1573,-0.1554,-0.1691,-0.1652,-0.1668,-0.1701,-0.1849,-0.1857,-0.1863,-0.1873,-0.1884,-0.1893,0,0,0,0,0,0,-0.1542,-0.1553,-0.1538,-0.1615,-0.1591,-0.157,-0.1592,-0.1561,-0.1596,-0.1599,-0.1604,-0.1613,-0.1685,-0.1711,-0.1668,-0.1795,-0.1765,-0.1776,-0.1767,-0.1778,-0.1786,-0.1739,-0.1629,0,0,0,0,0,-0.1572,-0.1624,-0.1603,-0.1659,-0.1658,-0.1626,-0.1626,-0.1598,-0.1611,-0.162,-0.1634,-0.1677,-0.1735,-0.1766,-0.1815,-0.1901,-0.1884,-0.1934,-0.1943,-0.1949,-0.1927,-0.1955,-0.1962,-0.189,-0.189,-0.189,0,0,-0.1598,-0.162,-0.1641,-0.1673,-0.1664,-0.1664,-0.1622,-0.1628,-0.1626,-0.1633,-0.1669,-0.1708,-0.1765,-0.1843,-0.1878,-0.1864,-0.1963,-0.1958,-0.1963,-0.1936,-0.1963,-0.1969,-0.1975,-0.1895,-0.1894,-0.1893,0,0,-0.166,-0.1709,-0.1751,-0.1744,-0.1731,-0.1712,-0.171,-0.169,-0.1686,-0.1728,-0.1733,-0.1785,-0.1869,-0.1903,-0.1937,-0.2034,-0.2003,-0.2063,-0.2072,-0.2101,-0.2105,-0.2109,-0.2084,-0.2085,-0.2072,-0.2072,-0.2072,0,-0.1693,-0.1743,-0.1757,-0.1782,-0.1769,-0.1731,-0.1735,-0.1743,-0.1742,-0.175,-0.1741,-0.1847,-0.1891,-0.1976,-0.2004,-0.2046,-0.2041,-0.202,-0.2105,-0.2109,-0.2112,-0.2086,-0.2087,-0.2073,-0.2073,-0.2073,-0.2073,0,-0.1751,-0.1787,-0.1815,-0.183,-0.1829,-0.1834,-0.1815,-0.1824,-0.1811,-0.18,-0.1862,-0.192,-0.1967,-0.201,-0.2037,-0.2101,-0.2081,-0.2103,-0.2061,-0.2119,-0.2089,-0.209,-0.2076,-0.2075,-0.2075,-0.2074,0,0,-0.182,-0.1848,-0.1853,-0.1843,-0.1848,-0.1842,-0.1868,-0.1863,-0.1859,-0.1885,-0.1891,-0.1998,-0.1996,-0.2035,-0.2079,-0.2113,-0.2136,-0.2119,-0.212,-0.206,-0.2161,-0.2048,-0.2037,-0.2175,-0.2176,-0.2176,-0.2124,0,-0.1844,-0.1881,-0.1895,-0.1897,-0.1895,-0.1884,-0.1898,-0.1895,-0.1897,-0.1901,-0.1953,-0.1985,-0.2019,-0.204,-0.2083,-0.2123,-0.2141,-0.2145,-0.2142,-0.2141,-0.2006,-0.2036,-0.1781,-0.1705,-0.2124,-0.2124,-0.2124,0,-0.1861,-0.189,-0.1895,-0.1896,-0.1898,-0.1897,-0.1887,-0.1896,-0.1912,-0.1917,-0.1951,-0.1969,-0.2025,-0.2042,-0.2106,-0.2108,-0.2128,-0.2151,-0.2151,-0.2031,-0.2029,-0.1723,-0.1689,-0.1586,-0.2125,-0.2125,-0.2125,0,-0.1828,-0.1873,-0.1869,-0.1869,-0.1879,-0.1883,-0.1888,-0.1896,-0.1891,-0.1914,-0.1902,-0.1968,-0.1979,-0.2035,-0.2069,-0.2094,-0.211,-0.2153,-0.2062,-0.2053,-0.1824,-0.1793,-0.1653,-0.2185,-0.2185,-0.2185,-0.2185,0,-0.181,-0.1802,-0.1853,-0.184,-0.1835,-0.1861,-0.185,-0.1856,-0.1869,-0.1849,-0.19,-0.1888,-0.198,-0.1996,-0.2046,-0.2027,-0.2089,-0.2039,-0.2034,-0.1824,-0.1795,-0.1685,-0.1735,-0.2183,-0.2183,-0.2184,-0.2184,0,-0.1719,-0.1757,-0.1749,-0.1791,-0.1799,-0.1785,-0.1803,-0.179,-0.1818,-0.179,-0.1791,-0.1821,-0.1823,-0.1882,-0.1947,-0.1964,-0.1899,-0.1966,-0.168,-0.1642,-0.1457,-0.152,-0.1458,-0.1425,-0.1846,-0.1843,-0.184,0,-0.1663,-0.1654,-0.1687,-0.1679,-0.1688,-0.1696,-0.1686,-0.1736,-0.1731,-0.1735,-0.1711,-0.1706,-0.1647,-0.1668,-0.168,-0.1686,-0.1746,-0.1506,-0.1518,-0.1381,-0.145,-0.1528,-0.1513,-0.1217,-0.121,-0.1204,-0.1199,0,-0.1559,-0.157,-0.1565,-0.1557,-0.1552,-0.1554,-0.1568,-0.1554,-0.1599,-0.1566,-0.1504,-0.1449,-0.141,-0.1249,-0.1268,-0.1302,-0.1374,-0.1382,-0.1316,-0.0998,-0.0996,-0.098,-0.1303,-0.1144,-0.115,-0.1154,-0.1157,-0.1159,-0.1464,-0.1441,-0.1445,-0.1418,-0.1416,-0.14,-0.1369,-0.1378,-0.1333,-0.1221,-0.1237,-0.0982,-0.0814,-0.0761,-0.086,-0.076,-0.1,-0.0697,-0.0798,-0.0897,-0.0821,-0.1003,-0.0808,-0.0811,-0.0814,-0.0816,-0.0819,0,-0.1347,-0.1339,-0.1312,-0.1293,-0.1252,-0.1293,-0.1269,-0.1192,-0.1092,-0.0907,-0.0763,-0.0251,-0.0088,-0.0079,-0.0015,-0.0082,-0.0218,-0.0162,-0.0177,-0.0208,-0.0368,-0.0287,0.0126,0.0125,0.0125,0.0125,0.0125,0.0125,-0.1287,-0.1231,-0.1225,-0.1143,-0.1125,-0.1023,-0.0985,-0.0847,-0.0675,-0.0249,0.0137,0.0375,0.0588,0.0514,0.0493,0.0392,0.0256,0.0226,0.0027,-0.0008,-0.0064,-0.0118,-0.0046,0.0411,0.0411,0.0343,0.0342,0.0342]}],[{"header":{"parameterUnit":"m.s-1","parameterCategory":2,"la1":30.2991,"la2":30.254,"lo1":-89.0895,"lo2":-89.0444,"dy":0.0017,"dx":0.0017,"nx":28,"ny":28,"refTime":"2024-03-25T21:00:00:Z","depth":"2","parameterNumber":2,"parameterNumberName":"U-component_of_CURRENTS"},"data":[0,0,0,0,0,0,0,0,0,0,0,0,0,0,0,0,0,0,0,0,0,0,0,0,0,0,0,0,0,0,0,0,0,0,0,0,0,0,0,0,0,0,0,0,0,0,0,0,0,0,0,0,0,0,0,0,0,0,0.1326,0.1326,0,0.1309,0.1309,0.1309,0.1423,0.1426,0.1428,0.1431,0.1506,0.1506,0.1505,0,0,0,0,0,0,0,0,0,0,0,0,0,0.1439,0.1436,0.1326,0.1326,0.1325,0.1309,0.1309,0.1309,0.1422,0.1426,0.1429,0.1432,0.1507,0.1506,0.1505,0,0,0,0,0,0,0,0,0,0,0,0,0,0.1407,0.1436,0.1326,0.1376,0.138,0.1309,0.1309,0.1309,0.1422,0.1426,0.143,0.1434,0.1507,0.1506,0.1505,0.1417,0,0,0.1503,0.1502,0,0,0,0,0,0,0,0,0.1409,0.1404,0.1369,0.1372,0.1376,0.1368,0.1376,0.1348,0.1421,0.1411,0.1431,0.1436,0.1462,0.1465,0.1459,0.1421,0.1424,0.1503,0.1502,0.1502,0.1501,0,0,0,0,0,0,0,0.1411,0.1405,0.1325,0.1368,0.1372,0.1392,0.1393,0.1371,0.1419,0.1412,0.1419,0.1408,0.1466,0.1459,0.1462,0.1425,0.1503,0.1502,0.1501,0.1501,0.1533,0.1534,0,0,0,0,0,0,0.1398,0.1406,0.1325,0.1324,0.1397,0.1386,0.1387,0.1371,0.1418,0.1427,0.1404,0.1413,0.1459,0.1462,0.1465,0.1557,0.1502,0.1501,0.15,0.1532,0.1533,0.1535,0,0,0,0,0,0,0.1401,0.1391,0.1326,0.1361,0.1354,0.1379,0.136,0.1368,0.1424,0.141,0.1423,0.146,0.1462,0.1466,0.1504,0.1554,0.1501,0.15,0.153,0.1532,0.1534,0.1618,0,0,0,0,0,0,0.1404,0.1392,0.1392,0.136,0.1351,0.1328,0.1355,0.1364,0.1404,0.1418,0.1459,0.1467,0.1466,0.1505,0.1503,0.1552,0.1499,0.1528,0.1531,0.1534,0.1614,0.1623,0.163,0,0,0,0,0,0.1408,0.1395,0.1392,0.1383,0.1345,0.1328,0.1327,0.1362,0.1404,0.143,0.1464,0.147,0.1521,0.1504,0.1502,0.1552,0.1527,0.153,0.1533,0.161,0.1621,0.163,0,0,0,0,0,0,0.1467,0.1402,0.1401,0.1376,0.137,0.1347,0.1375,0.1385,0.1428,0.1461,0.1469,0.1477,0.1527,0.1519,0.1502,0.1569,0.153,0.1533,0.159,0.16,0.1608,0.1622,0.1498,0,0,0,0,0,0.1465,0.1433,0.1395,0.1383,0.139,0.1389,0.1394,0.1408,0.1424,0.1452,0.1467,0.1496,0.152,0.155,0.1548,0.1575,0.1597,0.1611,0.1619,0.1627,0.1636,0.1697,0.1713,0.1545,0.1545,0.1545,0,0,0.1483,0.1445,0.143,0.1392,0.1403,0.1415,0.1409,0.1429,0.1456,0.1446,0.151,0.1513,0.1529,0.1568,0.1593,0.1585,0.1692,0.1631,0.1637,0.1642,0.1702,0.1719,0.1733,0.1547,0.1547,0.1546,0,0,0.1501,0.1482,0.147,0.1467,0.1463,0.146,0.1478,0.1472,0.1505,0.1523,0.1544,0.1597,0.1597,0.1645,0.1664,0.1718,0.1721,0.1708,0.178,0.184,0.1855,0.1868,0.1947,0.1966,0.173,0.173,0.173,0,0.1545,0.1507,0.1473,0.1478,0.1488,0.1494,0.1516,0.1535,0.154,0.1562,0.1566,0.1615,0.1647,0.1724,0.1757,0.1744,0.1764,0.1743,0.1853,0.1866,0.1878,0.1955,0.1976,0.1734,0.1734,0.1733,0.1733,0,0.1559,0.1544,0.1555,0.1555,0.1561,0.1585,0.159,0.1617,0.1644,0.165,0.1709,0.1732,0.1781,0.1796,0.1799,0.1898,0.1882,0.1845,0.1831,0.1901,0.1977,0.1997,0.1741,0.1739,0.1738,0.1737,0,0,0.1625,0.1574,0.1583,0.1579,0.1606,0.1602,0.1663,0.1697,0.1748,0.1761,0.1826,0.1885,0.1899,0.1924,0.1936,0.1992,0.2126,0.1959,0.196,0.2045,0.2264,0.2165,0.2177,0.209,0.2093,0.2096,0.2295,0,0.167,0.1661,0.1633,0.1659,0.1665,0.1682,0.1733,0.1763,0.1798,0.1857,0.1907,0.1964,0.1951,0.1986,0.2048,0.2089,0.2174,0.2076,0.2177,0.2181,0.209,0.2195,0.194,0.2086,0.2314,0.2317,0.232,0,0.1691,0.168,0.1695,0.1679,0.1695,0.1736,0.1806,0.1845,0.1932,0.1952,0.2021,0.2039,0.2159,0.2118,0.2267,0.2192,0.2253,0.2277,0.2284,0.2172,0.2117,0.2046,0.2113,0.2352,0.235,0.2347,0.2345,0,0.1712,0.1709,0.1715,0.1721,0.1733,0.1777,0.1829,0.1901,0.1942,0.204,0.208,0.2172,0.2256,0.2314,0.2387,0.2335,0.2522,0.2468,0.2445,0.244,0.2234,0.2204,0.2592,0.2591,0.2591,0.259,0.259,0,0.1724,0.1742,0.1736,0.1747,0.1793,0.1814,0.1897,0.194,0.2039,0.2102,0.2159,0.2228,0.2301,0.2398,0.2438,0.2512,0.2589,0.2487,0.2489,0.2257,0.2228,0.2447,0.2428,0.2598,0.2596,0.2595,0.2593,0,0.1744,0.1723,0.1724,0.176,0.1789,0.1834,0.1936,0.2006,0.2086,0.2178,0.2216,0.2324,0.2439,0.25,0.2624,0.2596,0.2657,0.2668,0.2398,0.2362,0.253,0.2513,0.2675,0.2673,0.2672,0.267,0.2669,0,0.1771,0.1762,0.1757,0.1746,0.1781,0.186,0.1941,0.2033,0.2102,0.2225,0.2285,0.2417,0.2447,0.2591,0.2584,0.2636,0.2702,0.2431,0.2284,0.2556,0.2542,0.2527,0.2512,0.2075,0.207,0.2065,0.2061,0,0.1825,0.1802,0.1786,0.1777,0.1823,0.1868,0.1992,0.2026,0.2137,0.2195,0.2258,0.2278,0.2398,0.2297,0.2369,0.2374,0.2383,0.2334,0.2719,0.2066,0.1999,0.1981,0.1985,0.2019,0.2023,0.2026,0.2028,0.203,0.1866,0.1871,0.1816,0.179,0.183,0.187,0.1859,0.1965,0.2016,0.2007,0.2123,0.2045,0.2052,0.199,0.1991,0.2023,0.2194,0.2064,0.2076,0.2094,0.1961,0.1891,0.187,0.1873,0.1876,0.1879,0.1881,0,0.1855,0.186,0.1856,0.1789,0.177,0.1836,0.188,0.1823,0.1816,0.1818,0.1782,0.1564,0.1496,0.1565,0.1518,0.1548,0.1529,0.1508,0.1427,0.1469,0.1508,0.1342,0.1088,0.1086,0.1084,0.1082,0,0,0.1844,0.1802,0.18,0.1716,0.1712,0.1689,0.1665,0.1582,0.1523,0.1383,0.1284,0.1293,0.1394,0.1145,0.1175,0.1108,0.1278,0.108,0.1708,0.1646,0.1681,0.1819,0.1611,0,0,0,0,0]},{"header":{"parameterUnit":"m.s-1","parameterCategory":2,"la1":30.2991,"la2":30.254,"lo1":-89.0895,"lo2":-89.0444,"dy":0.0017,"dx":0.0017,"nx":28,"ny":28,"refTime":"2024-03-25T21:00:00:Z","depth":"2","parameterNumber":3,"parameterNumberName":"V-component_of_CURRENTS"},"data":[0,0,0,0,0,0,0,0,0,0,0,0,0,0,0,0,0,0,0,0,0,0,0,0,0,0,0,0,0,0,0,0,0,0,0,0,0,0,0,0,0,0,0,0,0,0,0,0,0,0,0,0,0,0,0,0,0,0,0.0689,0.0689,0,0.0673,0.0672,0.0672,0.0615,0.0613,0.0612,0.0611,0.0504,0.0502,0.0501,0,0,0,0,0,0,0,0,0,0,0,0,0,0.0692,0.0692,0.0689,0.0689,0.0689,0.0673,0.0672,0.0672,0.0615,0.0613,0.0612,0.0611,0.0505,0.0503,0.05,0,0,0,0,0,0,0,0,0,0,0,0,0,0.0684,0.0692,0.0689,0.0659,0.0656,0.0673,0.0672,0.0672,0.0615,0.0613,0.0612,0.061,0.0505,0.0503,0.05,0.052,0,0,0.0492,0.0491,0,0,0,0,0,0,0,0,0.0684,0.0683,0.0664,0.0661,0.0658,0.0645,0.0634,0.0617,0.0616,0.063,0.0611,0.0609,0.0545,0.0539,0.0539,0.0515,0.0511,0.0492,0.049,0.0489,0.0489,0,0,0,0,0,0,0,0.0685,0.0684,0.0681,0.0664,0.066,0.0654,0.065,0.0631,0.0595,0.0628,0.0624,0.0625,0.0542,0.0542,0.0536,0.0509,0.0492,0.049,0.0488,0.0487,0.0456,0.0457,0,0,0,0,0,0,0.069,0.0685,0.0682,0.0681,0.0668,0.0655,0.0651,0.065,0.0597,0.0588,0.0626,0.0622,0.0548,0.0539,0.0532,0.0519,0.0489,0.0487,0.0485,0.0455,0.0456,0.0457,0,0,0,0,0,0,0.069,0.069,0.0683,0.0683,0.0682,0.0657,0.0656,0.0651,0.0635,0.0597,0.0586,0.0614,0.0546,0.0536,0.0509,0.0515,0.0486,0.0483,0.0454,0.0456,0.0457,0.0514,0,0,0,0,0,0,0.069,0.069,0.0689,0.0684,0.0682,0.0693,0.0658,0.0652,0.064,0.0634,0.0583,0.0573,0.0544,0.0513,0.0506,0.0511,0.0481,0.0453,0.0455,0.0456,0.0511,0.0517,0.0522,0,0,0,0,0,0.069,0.0699,0.0689,0.0689,0.0682,0.0694,0.0693,0.0668,0.0641,0.0645,0.0606,0.0573,0.0516,0.0512,0.0503,0.0508,0.0453,0.0455,0.0456,0.0509,0.0516,0.0522,0,0,0,0,0,0,0.0701,0.0694,0.0683,0.0688,0.0691,0.0685,0.0684,0.0668,0.0644,0.0632,0.0583,0.0571,0.0552,0.0525,0.0521,0.0504,0.048,0.048,0.0523,0.0529,0.0534,0.0566,0.0479,0,0,0,0,0,0.0705,0.0707,0.0704,0.071,0.0709,0.0695,0.0694,0.0686,0.0667,0.0653,0.0616,0.058,0.0559,0.0537,0.0518,0.0507,0.0499,0.0505,0.0511,0.0515,0.0537,0.0526,0.0533,0.0462,0.0462,0.0462,0,0,0.0718,0.0709,0.0714,0.0713,0.0707,0.0725,0.0689,0.0697,0.0709,0.0647,0.0634,0.0599,0.0562,0.0552,0.0541,0.0524,0.0532,0.0517,0.0522,0.0541,0.0529,0.0536,0.0542,0.0463,0.0463,0.0463,0,0,0.0755,0.0729,0.0751,0.0747,0.0748,0.0744,0.0746,0.0738,0.0725,0.0721,0.0678,0.0647,0.061,0.0587,0.057,0.0593,0.0565,0.0582,0.0628,0.0617,0.0623,0.0628,0.0632,0.0637,0.0579,0.0579,0.0579,0,0.0765,0.079,0.0762,0.0777,0.0782,0.0753,0.0786,0.0777,0.0761,0.076,0.0723,0.0678,0.0632,0.0627,0.063,0.0605,0.0603,0.0604,0.0625,0.0629,0.0634,0.0636,0.0641,0.0582,0.0582,0.0581,0.0581,0,0.0827,0.0835,0.0844,0.0852,0.0856,0.0875,0.0864,0.0865,0.0839,0.0827,0.0812,0.0755,0.0728,0.0703,0.067,0.068,0.0671,0.0637,0.061,0.0644,0.0645,0.0649,0.0586,0.0585,0.0584,0.0584,0,0,0.0874,0.0887,0.0887,0.0903,0.0896,0.0911,0.0928,0.0944,0.0963,0.0918,0.0934,0.0874,0.0836,0.0816,0.0765,0.0746,0.0759,0.0709,0.0707,0.0718,0.0755,0.0732,0.0734,0.0729,0.073,0.0731,0.0746,0,0.093,0.0979,0.097,0.1017,0.1043,0.1016,0.1041,0.1044,0.1031,0.1034,0.0968,0.0959,0.088,0.087,0.0837,0.0782,0.0772,0.076,0.0717,0.0717,0.0695,0.0739,0.0731,0.0742,0.0749,0.075,0.075,0,0.1005,0.102,0.1083,0.1107,0.1115,0.1136,0.1167,0.1188,0.1181,0.1176,0.1145,0.1088,0.1047,0.0977,0.0904,0.0902,0.0845,0.0796,0.0795,0.0761,0.0702,0.0707,0.0749,0.0757,0.0756,0.0756,0.0755,0,0.1075,0.1102,0.1155,0.1158,0.1181,0.1204,0.1216,0.1228,0.1265,0.1265,0.128,0.1216,0.1181,0.1106,0.0981,0.0951,0.0913,0.0851,0.0785,0.0782,0.0763,0.0757,0.0825,0.0825,0.0825,0.0825,0.0825,0,0.1148,0.1184,0.1186,0.1212,0.1274,0.1263,0.1327,0.135,0.138,0.1419,0.135,0.1359,0.1211,0.1148,0.1043,0.0934,0.0957,0.0818,0.079,0.0782,0.0778,0.0774,0.0768,0.0825,0.0825,0.0825,0.0825,0,0.1226,0.1234,0.1291,0.1309,0.1318,0.1362,0.1402,0.1437,0.1473,0.1524,0.1528,0.1475,0.1385,0.125,0.1126,0.1011,0.0916,0.0876,0.0884,0.0857,0.0779,0.0776,0.0804,0.0803,0.0803,0.0802,0.0802,0,0.127,0.1311,0.1357,0.1389,0.1397,0.1438,0.1463,0.1497,0.1541,0.1585,0.1615,0.1549,0.1504,0.133,0.1135,0.098,0.0937,0.0855,0.0783,0.081,0.078,0.0777,0.0774,0.0783,0.0783,0.0782,0.0782,0,0.1323,0.1347,0.1377,0.1448,0.1478,0.1531,0.1569,0.1634,0.1663,0.171,0.1757,0.1732,0.1549,0.1355,0.1128,0.1017,0.0875,0.0841,0.0883,0.0783,0.0789,0.076,0.0758,0.0779,0.0779,0.0779,0.0779,0.0779,0.1345,0.1361,0.1393,0.1468,0.1526,0.16,0.1648,0.1692,0.1774,0.1829,0.1833,0.1757,0.1575,0.1241,0.1046,0.0826,0.0869,0.076,0.0761,0.0763,0.0752,0.0756,0.0738,0.0738,0.0738,0.0738,0.0738,0,0.1311,0.1324,0.1392,0.1472,0.1555,0.1587,0.1688,0.1719,0.1794,0.1819,0.1849,0.16,0.1422,0.1185,0.0861,0.0704,0.0684,0.062,0.0622,0.0629,0.0635,0.0615,0.0566,0.0564,0.0563,0.0561,0,0,0.1281,0.1297,0.1322,0.1441,0.1527,0.1584,0.1647,0.1715,0.1742,0.1736,0.1667,0.1685,0.1428,0.1135,0.0931,0.0723,0.0701,0.0682,0.0851,0.0889,0.0895,0.0763,0.0747,0,0,0,0,0]}],[{"header":{"parameterUnit":"m.s-1","parameterCategory":2,"la1":30.2991,"la2":30.254,"lo1":-89.0895,"lo2":-89.0444,"dy":0.0017,"dx":0.0017,"nx":28,"ny":28,"refTime":"2024-03-25T21:00:00:Z","depth":"4","parameterNumber":2,"parameterNumberName":"U-component_of_CURRENTS"},"data":[0,0,0,0,0,0,0,0,0,0,0,0,0,0,0,0,0,0,0,0,0,0,0,0,0,0,0,0,0,0,0,0,0,0,0,0,0,0,0,0,0,0,0,0,0,0,0,0,0,0,0,0,0,0,0,0,0,0,0.06,0.0601,0,0.0653,0.0654,0.0654,0.0687,0.0687,0.0687,0.0688,0.0753,0.0754,0.0756,0,0,0,0,0,0,0,0,0,0,0,0,0,0.052,0.0521,0.06,0.0601,0.0602,0.0653,0.0654,0.0654,0.0687,0.0687,0.0688,0.0688,0.0753,0.0754,0.0756,0,0,0,0,0,0,0,0,0,0,0,0,0,0.0561,0.0521,0.06,0.0625,0.0628,0.0653,0.0654,0.0655,0.0687,0.0687,0.0688,0.0688,0.0752,0.0754,0.0756,0.0761,0,0,0.0763,0.0764,0,0,0,0,0,0,0,0,0.0558,0.0563,0.0621,0.0624,0.0627,0.0665,0.0649,0.0691,0.0687,0.0663,0.0688,0.0688,0.0725,0.073,0.0736,0.0764,0.0766,0.0763,0.0764,0.0765,0.0766,0,0,0,0,0,0,0,0.0555,0.0561,0.062,0.0622,0.0625,0.0631,0.0638,0.0657,0.069,0.0665,0.0668,0.0676,0.0727,0.0734,0.0738,0.0767,0.0763,0.0765,0.0766,0.0767,0.0864,0.0865,0,0,0,0,0,0,0.0552,0.0559,0.0618,0.0622,0.0595,0.0633,0.064,0.0651,0.069,0.0696,0.0676,0.0677,0.073,0.0736,0.0741,0.0807,0.0765,0.0767,0.0769,0.0863,0.0864,0.0866,0,0,0,0,0,0,0.055,0.0557,0.0616,0.0592,0.06,0.0634,0.0647,0.0652,0.0678,0.0698,0.0704,0.0697,0.0731,0.0738,0.0778,0.0807,0.0768,0.077,0.0861,0.0863,0.0865,0.0901,0,0,0,0,0,0,0.0547,0.0556,0.0569,0.0592,0.0602,0.0649,0.0647,0.0653,0.0681,0.0685,0.0718,0.0724,0.0732,0.0775,0.078,0.0809,0.0772,0.086,0.0862,0.0864,0.0898,0.0904,0.0909,0,0,0,0,0,0.0544,0.0557,0.0569,0.0577,0.0617,0.065,0.0656,0.0679,0.0682,0.0702,0.0723,0.0724,0.0793,0.0777,0.0783,0.0814,0.0858,0.0861,0.0864,0.0896,0.0903,0.0909,0,0,0,0,0,0,0.0524,0.0562,0.0576,0.0599,0.0632,0.0656,0.0673,0.0688,0.0719,0.0725,0.0738,0.0746,0.0794,0.0798,0.0779,0.0849,0.0827,0.0831,0.0849,0.0855,0.0861,0.0873,0.0774,0,0,0,0,0,0.0527,0.055,0.0586,0.0606,0.0622,0.0651,0.0668,0.0689,0.0715,0.073,0.0754,0.078,0.0807,0.0826,0.0851,0.0886,0.0896,0.0911,0.0916,0.092,0.0935,0.0973,0.0983,0.0875,0.0875,0.0875,0,0,0.0524,0.0548,0.0562,0.0605,0.0628,0.0659,0.0663,0.0698,0.0729,0.0731,0.0782,0.0802,0.0822,0.0865,0.0887,0.0874,0.0955,0.0924,0.0927,0.094,0.0977,0.0988,0.0997,0.0877,0.0877,0.0876,0,0,0.0527,0.0554,0.0576,0.0608,0.0653,0.0673,0.0688,0.0729,0.0755,0.0802,0.0813,0.0854,0.0893,0.0918,0.0932,0.0981,0.0983,0.0988,0.1025,0.1062,0.1071,0.1079,0.1095,0.1105,0.0989,0.0989,0.0989,0,0.0524,0.0559,0.0587,0.0619,0.0647,0.0681,0.0714,0.0745,0.0797,0.0821,0.0826,0.0902,0.092,0.0973,0.0994,0.0995,0.1008,0.0997,0.1069,0.1077,0.1085,0.11,0.111,0.0991,0.0991,0.099,0.099,0,0.0543,0.0581,0.0596,0.065,0.0682,0.0718,0.0764,0.0804,0.0835,0.0866,0.0934,0.0965,0.1011,0.1024,0.1027,0.1094,0.1082,0.1071,0.1051,0.1098,0.111,0.112,0.0994,0.0993,0.0992,0.0992,0,0,0.0512,0.0595,0.0602,0.0639,0.0705,0.0733,0.0787,0.0845,0.0884,0.0941,0.0996,0.1053,0.1076,0.1095,0.1109,0.1145,0.121,0.1138,0.1139,0.1151,0.1284,0.1178,0.1178,0.1212,0.1215,0.1216,0.1266,0,0.0522,0.0585,0.0622,0.0686,0.0726,0.0777,0.0824,0.0881,0.0929,0.0992,0.104,0.1098,0.11,0.1131,0.1172,0.1202,0.1239,0.1197,0.1239,0.124,0.1139,0.1187,0.1223,0.1273,0.1275,0.1277,0.1278,0,0.053,0.0575,0.0638,0.072,0.074,0.0783,0.0863,0.0913,0.0998,0.1038,0.1104,0.114,0.1214,0.1207,0.129,0.1263,0.1287,0.1303,0.1305,0.1204,0.1153,0.1219,0.1295,0.1294,0.1293,0.1292,0.1291,0,0.05,0.0585,0.0636,0.0667,0.076,0.0799,0.085,0.093,0.0978,0.1076,0.1118,0.12,0.1254,0.13,0.1336,0.1324,0.1413,0.1393,0.132,0.1312,0.1375,0.1366,0.1462,0.1462,0.1462,0.1461,0.1461,0,0.0497,0.0539,0.0633,0.0664,0.0724,0.0796,0.0862,0.0923,0.1015,0.1071,0.1146,0.119,0.1286,0.1337,0.1359,0.1363,0.1431,0.134,0.1326,0.1387,0.1379,0.1381,0.1371,0.1463,0.1463,0.1463,0.1462,0,0.0458,0.0522,0.0583,0.0682,0.0716,0.076,0.0864,0.0908,0.1003,0.108,0.1116,0.1212,0.1269,0.1334,0.141,0.1382,0.1399,0.1385,0.1444,0.1429,0.1268,0.126,0.1309,0.1306,0.1303,0.1301,0.1299,0,0.0443,0.0476,0.0577,0.0612,0.0659,0.0737,0.0784,0.0892,0.094,0.1069,0.1096,0.1189,0.1241,0.1252,0.1327,0.1361,0.1351,0.1351,0.1319,0.1276,0.1257,0.1253,0.1248,0.1295,0.1294,0.1293,0.1293,0,0.041,0.0449,0.0497,0.0571,0.0628,0.0672,0.0754,0.0782,0.0904,0.1003,0.1043,0.108,0.1142,0.1186,0.1229,0.1248,0.1344,0.1323,0.1329,0.1298,0.1259,0.1242,0.1241,0.1284,0.1285,0.1286,0.1286,0,0.0381,0.0396,0.0466,0.0527,0.0581,0.0596,0.0642,0.0704,0.0764,0.0919,0.0923,0.1017,0.1115,0.1127,0.1157,0.1176,0.1164,0.1131,0.1146,0.1157,0.1087,0.1014,0.0962,0,0,0,0,0,0.0358,0.0379,0.0421,0.0473,0.0515,0.0549,0.062,0.067,0.0793,0.0793,0.0861,0.0907,0.0958,0.1001,0.0993,0.1101,0.1171,0.1088,0.1139,0.1232,0.1243,0.1176,0,0,0,0,0,0,0.0346,0.0384,0.0404,0.0417,0.0439,0.047,0.0505,0.0578,0.0587,0.0715,0.074,0.0849,0.0905,0.0954,0.0974,0.0994,0.1006,0.116,0.1158,0.1226,0.1236,0.1245,0.1179,0,0,0,0,0]},{"header":{"parameterUnit":"m.s-1","parameterCategory":2,"la1":30.2991,"la2":30.254,"lo1":-89.0895,"lo2":-89.0444,"dy":0.0017,"dx":0.0017,"nx":28,"ny":28,"refTime":"2024-03-25T21:00:00:Z","depth":"4","parameterNumber":3,"parameterNumberName":"V-component_of_CURRENTS"},"data":[0,0,0,0,0,0,0,0,0,0,0,0,0,0,0,0,0,0,0,0,0,0,0,0,0,0,0,0,0,0,0,0,0,0,0,0,0,0,0,0,0,0,0,0,0,0,0,0,0,0,0,0,0,0,0,0,0,0,0.06,0.06,0,0.0605,0.0605,0.0605,0.0598,0.0597,0.0597,0.0597,0.0562,0.0561,0.056,0,0,0,0,0,0,0,0,0,0,0,0,0,0.0574,0.0575,0.06,0.06,0.06,0.0605,0.0605,0.0605,0.0598,0.0597,0.0597,0.0597,0.0562,0.0561,0.056,0,0,0,0,0,0,0,0,0,0,0,0,0,0.0583,0.0575,0.06,0.0598,0.0597,0.0605,0.0605,0.0605,0.0598,0.0597,0.0597,0.0597,0.0562,0.0561,0.056,0.056,0,0,0.0557,0.0556,0,0,0,0,0,0,0,0,0.0582,0.0583,0.0598,0.0598,0.0598,0.0601,0.0583,0.0588,0.0598,0.0597,0.0597,0.0597,0.0572,0.057,0.0571,0.0558,0.0557,0.0557,0.0556,0.0556,0.0555,0,0,0,0,0,0,0,0.0582,0.0583,0.0602,0.0598,0.0598,0.0593,0.0594,0.0584,0.0585,0.0597,0.0597,0.0598,0.0571,0.0573,0.057,0.0556,0.0557,0.0556,0.0555,0.0555,0.0553,0.0554,0,0,0,0,0,0,0.0583,0.0583,0.0602,0.0602,0.059,0.0594,0.0595,0.06,0.0586,0.0584,0.0599,0.0598,0.0575,0.0572,0.0569,0.0581,0.0556,0.0555,0.0554,0.0553,0.0553,0.0554,0,0,0,0,0,0,0.0582,0.0585,0.0601,0.0592,0.0594,0.0595,0.06,0.06,0.0607,0.0588,0.0585,0.0606,0.0574,0.0571,0.0568,0.0579,0.0554,0.0553,0.0552,0.0553,0.0554,0.0596,0,0,0,0,0,0,0.0582,0.0585,0.0597,0.0593,0.0595,0.0609,0.0601,0.06,0.0608,0.0608,0.0593,0.0589,0.0574,0.057,0.0567,0.0577,0.0552,0.0551,0.0552,0.0553,0.0593,0.0598,0.0602,0,0,0,0,0,0.0581,0.0596,0.0598,0.06,0.0609,0.061,0.061,0.0609,0.0609,0.0614,0.0607,0.059,0.0575,0.057,0.0566,0.0576,0.055,0.0552,0.0553,0.0592,0.0597,0.0601,0,0,0,0,0,0,0.0597,0.0596,0.0598,0.0614,0.0614,0.0609,0.062,0.0616,0.0615,0.0618,0.0598,0.0594,0.0596,0.0581,0.0576,0.0579,0.056,0.0561,0.0591,0.0596,0.06,0.0601,0.0551,0,0,0,0,0,0.0606,0.0613,0.0611,0.0626,0.0629,0.0627,0.0631,0.0628,0.0624,0.0624,0.0613,0.0604,0.0598,0.0594,0.0585,0.0587,0.0567,0.0591,0.0595,0.0598,0.0597,0.0574,0.0575,0.0558,0.0558,0.0558,0,0,0.0617,0.0618,0.0623,0.0629,0.0633,0.064,0.0628,0.0637,0.0643,0.062,0.0628,0.0618,0.0603,0.0605,0.0605,0.0594,0.0596,0.06,0.0603,0.06,0.0575,0.0577,0.0578,0.0559,0.0559,0.0559,0,0,0.0637,0.0645,0.0656,0.0656,0.0661,0.0658,0.0663,0.0661,0.0663,0.0667,0.0654,0.0651,0.0642,0.0632,0.0626,0.0647,0.0619,0.0647,0.0667,0.0644,0.0645,0.0646,0.0634,0.0633,0.0648,0.0648,0.0648,0,0.0647,0.0663,0.066,0.0668,0.0674,0.0668,0.0681,0.0682,0.0678,0.0681,0.0675,0.0668,0.0653,0.0655,0.0662,0.0656,0.0641,0.065,0.0649,0.0649,0.0649,0.0636,0.0634,0.065,0.065,0.065,0.065,0,0.0674,0.0685,0.0693,0.07,0.0706,0.0715,0.0715,0.0724,0.0725,0.0718,0.0723,0.0707,0.0701,0.0698,0.0686,0.0684,0.0674,0.0658,0.0636,0.0653,0.0639,0.0636,0.0653,0.0653,0.0652,0.0651,0,0,0.069,0.0706,0.0709,0.0721,0.0723,0.0733,0.0747,0.0754,0.0768,0.076,0.0772,0.0758,0.0748,0.074,0.0726,0.0706,0.0696,0.0685,0.0682,0.0671,0.0653,0.0644,0.064,0.0678,0.0678,0.0677,0.0648,0,0.0708,0.0734,0.0735,0.0761,0.0775,0.0775,0.0793,0.0798,0.0795,0.0805,0.0788,0.0792,0.0765,0.077,0.0745,0.0709,0.069,0.0706,0.0639,0.0637,0.0625,0.0637,0.0676,0.0646,0.0645,0.0644,0.0644,0,0.073,0.0744,0.0777,0.0799,0.0808,0.0828,0.0856,0.0869,0.0872,0.0872,0.0862,0.084,0.0822,0.0796,0.0735,0.0747,0.0704,0.0671,0.0669,0.0641,0.0623,0.0621,0.0639,0.064,0.064,0.064,0.0641,0,0.0746,0.077,0.0802,0.0808,0.0836,0.0863,0.0885,0.0896,0.0922,0.0918,0.0929,0.0887,0.089,0.0819,0.0752,0.074,0.0683,0.0657,0.0608,0.0607,0.0605,0.0605,0.0609,0.0609,0.0609,0.0609,0.0609,0,0.0754,0.0781,0.0821,0.0839,0.0894,0.0901,0.0957,0.0967,0.0994,0.1027,0.0974,0.0985,0.0895,0.0849,0.0769,0.0689,0.0694,0.0613,0.0597,0.0626,0.0628,0.0604,0.0604,0.0608,0.0608,0.0608,0.0609,0,0.0763,0.0786,0.0831,0.088,0.0906,0.0951,0.1023,0.1057,0.1072,0.1115,0.112,0.1071,0.1007,0.0913,0.081,0.0727,0.064,0.0611,0.0665,0.0653,0.0572,0.0575,0.0541,0.054,0.0539,0.0539,0.0539,0,0.0765,0.0792,0.0872,0.0912,0.0942,0.1012,0.1066,0.1106,0.1141,0.1165,0.1188,0.1142,0.1095,0.0943,0.0835,0.0683,0.0655,0.0598,0.0562,0.0576,0.0564,0.0567,0.0571,0.0538,0.0538,0.0538,0.0537,0,0.0769,0.0812,0.0852,0.0946,0.1015,0.1086,0.116,0.1192,0.1237,0.1252,0.1235,0.1147,0.1083,0.0947,0.0842,0.0727,0.0621,0.0591,0.0591,0.0557,0.0572,0.0562,0.0565,0.0536,0.0536,0.0536,0.0536,0,0.0782,0.0817,0.0889,0.0967,0.1056,0.1133,0.117,0.1215,0.1257,0.1273,0.1271,0.1185,0.1144,0.0972,0.0872,0.0762,0.0714,0.0641,0.0637,0.0638,0.0666,0.07,0.0691,0,0,0,0,0,0.0784,0.0829,0.0901,0.0988,0.1077,0.1138,0.1222,0.125,0.1294,0.1285,0.1278,0.121,0.105,0.0983,0.0871,0.0853,0.0695,0.0713,0.0609,0.0525,0.0528,0.0542,0,0,0,0,0,0,0.0787,0.0857,0.0896,0.0995,0.1059,0.1164,0.1223,0.125,0.1241,0.126,0.1182,0.1152,0.1007,0.1118,0.086,0.083,0.0738,0.0651,0.0647,0.0524,0.0526,0.0528,0.0544,0,0,0,0,0]}]]